Location: Poughquag
(41.6090°N, 73.6820°W)
Time: 12:38:31
(UTC-04:00)

A-11 Canister half - Pass Details

Date: 05 June 2020
Orbit: 1527 x 1682 km, 47.3° (Epoch: 06 July)

Event Time Altitude Azimuth Distance (km) Brightness Sun altitude
Rises 10:49:32 0° 289° (WNW) 4,687 11.2 57.9°
Reaches altitude 10° 10:52:35 10° 292° (WNW) 3,712 10.8 58.4°
Maximum altitude 11:01:58 72° 16° (NNE) 1,634 10.2 60.0°
Drops below altitude 10° 11:11:37 10° 101° (E) 3,811 11.7 61.5°
Sets 11:14:48 0° 103° (ESE) 4,817 12.0 62.0°
